Time,TemperatureF,DewpointF,PressureIn,WindDirection,WindDirectionDegrees,WindSpeedMPH,WindSpeedGustMPH,Humidity,HourlyPrecipIn,Conditions,Clouds,dailyrainin,SolarRadiationWatts/m^2,SoftwareType,DateUTC
2013-01-04 00:02:00,35.1,28.6,30.39,North,5,0.0,0.0,77,0.00,,,0.00,0,Wunderground v.1.15,2013-01-04 06:02:00,
2013-01-04 00:07:00,35.1,28.6,30.39,North,5,0.0,0.0,77,0.00,,,0.00,0,Wunderground v.1.15,2013-01-04 06:07:00,
2013-01-04 00:12:00,35.0,28.5,30.40,North,5,0.0,0.0,77,0.00,,,0.00,0,Wunderground v.1.15,2013-01-04 06:12:00,
2013-01-04 00:18:00,34.9,28.7,30.39,North,5,0.0,0.0,78,0.00,,,0.00,0,Wunderground v.1.15,2013-01-04 06:18:00,
2013-01-04 00:23:00,34.8,28.6,30.39,North,5,0.0,0.0,78,0.00,,,0.00,0,Wunderground v.1.15,2013-01-04 06:23:00,
2013-01-04 00:28:00,34.7,28.5,30.39,North,5,0.0,0.0,78,0.00,,,0.00,0,Wunderground v.1.15,2013-01-04 06:28:00,
2013-01-04 00:33:00,34.6,28.8,30.39,North,5,0.0,0.0,79,0.00,,,0.00,0,Wunderground v.1.15,2013-01-04 06:33:00,
2013-01-04 00:39:00,34.5,28.7,30.39,North,5,0.0,2.0,79,0.00,,,0.00,0,Wunderground v.1.15,2013-01-04 06:39:00,
2013-01-04 00:44:00,34.4,28.6,30.39,North,5,0.0,2.0,79,0.00,,,0.00,0,Wunderground v.1.15,2013-01-04 06:44:00,
2013-01-04 00:49:00,34.4,28.6,30.39,North,5,0.0,3.0,79,0.00,,,0.00,0,Wunderground v.1.15,2013-01-04 06:49:00,
2013-01-04 00:55:00,34.4,28.9,30.39,North,5,0.0,0.0,80,0.00,,,0.00,0,Wunderground v.1.15,2013-01-04 06:55:00,
2013-01-04 01:01:00,34.4,28.9,30.39,North,5,0.0,0.0,80,0.00,,,0.00,0,Wunderground v.1.15,2013-01-04 07:01:00,
2013-01-04 01:06:00,34.4,28.9,30.39,North,5,0.0,0.0,80,0.00,,,0.00,0,Wunderground v.1.15,2013-01-04 07:06:00,
2013-01-04 01:11:00,34.4,28.9,30.38,North,5,0.0,0.0,80,0.00,,,0.00,0,Wunderground v.1.15,2013-01-04 07:11:00,
2013-01-04 01:17:00,34.4,29.2,30.38,North,5,0.0,0.0,81,0.00,,,0.00,0,Wunderground v.1.15,2013-01-04 07:17:00,
2013-01-04 01:22:00,34.4,29.2,30.39,North,5,0.0,0.0,81,0.00,,,0.00,0,Wunderground v.1.15,2013-01-04 07:22:00,
2013-01-04 01:27:00,34.4,29.2,30.39,North,5,0.0,0.0,81,0.00,,,0.00,0,Wunderground v.1.15,2013-01-04 07:27:00,
2013-01-04 01:32:00,34.4,29.2,30.38,North,5,0.0,0.0,81,0.00,,,0.00,0,Wunderground v.1.15,2013-01-04 07:32:00,
2013-01-04 01:37:00,34.3,29.4,30.38,North,5,0.0,0.0,82,0.00,,,0.00,0,Wunderground v.1.15,2013-01-04 07:37:00,
2013-01-04 01:42:00,34.2,29.3,30.38,North,5,0.0,0.0,82,0.00,,,0.00,0,Wunderground v.1.15,2013-01-04 07:42:00,
2013-01-04 01:48:00,34.2,29.3,30.38,North,10,0.0,0.0,82,0.00,,,0.00,0,Wunderground v.1.15,2013-01-04 07:48:00,
2013-01-04 01:53:00,34.3,29.4,30.38,NNE,15,1.0,3.0,82,0.00,,,0.00,0,Wunderground v.1.15,2013-01-04 07:53:00,
2013-01-04 01:58:00,34.3,29.4,30.37,North,10,1.0,4.0,82,0.00,,,0.00,0,Wunderground v.1.15,2013-01-04 07:58:00,
2013-01-04 02:04:00,34.2,29.6,30.37,NNE,19,1.0,4.0,83,0.00,,,0.00,0,Wunderground v.1.15,2013-01-04 08:04:00,
2013-01-04 02:09:00,34.2,29.6,30.37,NNE,15,0.0,4.0,83,0.00,,,0.00,0,Wunderground v.1.15,2013-01-04 08:09:00,
2013-01-04 02:14:00,34.2,29.6,30.38,NNE,15,0.0,2.0,83,0.00,,,0.00,0,Wunderground v.1.15,2013-01-04 08:14:00,
2013-01-04 02:19:00,34.4,29.8,30.38,NNE,15,0.0,2.0,83,0.00,,,0.00,0,Wunderground v.1.15,2013-01-04 08:19:00,
2013-01-04 02:24:00,34.4,29.8,30.37,NNE,15,0.0,3.0,83,0.00,,,0.00,0,Wunderground v.1.15,2013-01-04 08:24:00,
2013-01-04 02:30:00,34.4,29.8,30.37,NNE,31,0.0,0.0,83,0.00,,,0.00,0,Wunderground v.1.15,2013-01-04 08:30:00,
2013-01-04 02:35:00,34.4,29.8,30.37,NE,34,1.0,2.0,83,0.00,,,0.00,0,Wunderground v.1.15,2013-01-04 08:35:00,
2013-01-04 02:40:00,34.4,29.8,30.36,NE,54,0.0,0.0,83,0.00,,,0.00,0,Wunderground v.1.15,2013-01-04 08:40:00,
2013-01-04 02:45:00,34.4,29.8,30.36,NNE,15,0.0,0.0,83,0.00,,,0.00,0,Wunderground v.1.15,2013-01-04 08:45:00,
2013-01-04 02:51:00,34.4,29.8,30.37,NNE,15,0.0,0.0,83,0.00,,,0.00,0,Wunderground v.1.15,2013-01-04 08:51:00,
2013-01-04 02:56:00,34.4,29.8,30.36,NE,50,0.0,4.0,83,0.00,,,0.00,0,Wunderground v.1.15,2013-01-04 08:56:00,
2013-01-04 03:01:00,34.4,29.8,30.36,NNE,21,1.0,1.0,83,0.00,,,0.00,0,Wunderground v.1.15,2013-01-04 09:01:00,
2013-01-04 03:07:00,34.4,29.8,30.36,NE,46,1.0,1.0,83,0.00,,,0.00,0,Wunderground v.1.15,2013-01-04 09:07:00,
2013-01-04 03:12:00,34.3,29.7,30.37,NNE,15,0.0,5.0,83,0.00,,,0.00,0,Wunderground v.1.15,2013-01-04 09:12:00,
2013-01-04 03:17:00,34.3,29.7,30.37,NNE,27,1.0,5.0,83,0.00,,,0.00,0,Wunderground v.1.15,2013-01-04 09:17:00,
2013-01-04 03:22:00,34.4,29.8,30.37,NNE,32,1.0,4.0,83,0.00,,,0.00,0,Wunderground v.1.15,2013-01-04 09:22:00,
2013-01-04 03:28:00,34.4,29.5,30.37,NE,41,1.0,7.0,82,0.00,,,0.00,0,Wunderground v.1.15,2013-01-04 09:28:00,
2013-01-04 03:33:00,34.4,29.5,30.37,NE,38,1.0,2.0,82,0.00,,,0.00,0,Wunderground v.1.15,2013-01-04 09:33:00,
2013-01-04 03:38:00,34.4,29.5,30.37,NE,36,1.0,4.0,82,0.00,,,0.00,0,Wunderground v.1.15,2013-01-04 09:38:00,
2013-01-04 03:44:00,34.4,29.5,30.37,NE,34,1.0,5.0,82,0.00,,,0.00,0,Wunderground v.1.15,2013-01-04 09:44:00,
2013-01-04 03:49:00,34.4,29.5,30.38,NE,40,1.0,5.0,82,0.00,,,0.00,0,Wunderground v.1.15,2013-01-04 09:49:00,
2013-01-04 03:54:00,34.4,29.5,30.38,NE,40,0.0,1.0,82,0.00,,,0.00,0,Wunderground v.1.15,2013-01-04 09:54:00,
2013-01-04 04:00:00,34.4,29.5,30.38,NE,39,0.0,7.0,82,0.00,,,0.00,0,Wunderground v.1.15,2013-01-04 10:00:00,
2013-01-04 04:05:00,34.4,29.5,30.38,NNE,29,1.0,7.0,82,0.00,,,0.00,0,Wunderground v.1.15,2013-01-04 10:05:00,
2013-01-04 04:11:00,34.2,29.3,30.37,NNE,30,0.0,1.0,82,0.00,,,0.00,0,Wunderground v.1.15,2013-01-04 10:11:00,
2013-01-04 04:16:00,34.1,29.2,30.38,NNE,29,0.0,2.0,82,0.00,,,0.00,0,Wunderground v.1.15,2013-01-04 10:16:00,
2013-01-04 04:21:00,34.0,29.4,30.38,NNE,29,0.0,0.0,83,0.00,,,0.00,0,Wunderground v.1.15,2013-01-04 10:21:00,
2013-01-04 04:26:00,33.8,29.2,30.38,NNE,29,0.0,0.0,83,0.00,,,0.00,0,Wunderground v.1.15,2013-01-04 10:26:00,
2013-01-04 04:31:00,33.8,29.2,30.38,NNE,29,0.0,3.0,83,0.00,,,0.00,0,Wunderground v.1.15,2013-01-04 10:31:00,
2013-01-04 04:36:00,33.7,29.4,30.38,NNE,32,1.0,3.0,84,0.00,,,0.00,0,Wunderground v.1.15,2013-01-04 10:36:00,
2013-01-04 04:42:00,33.5,29.2,30.38,NNE,32,1.0,1.0,84,0.00,,,0.00,0,Wunderground v.1.15,2013-01-04 10:42:00,
2013-01-04 04:47:00,33.4,29.1,30.38,NNE,29,0.0,1.0,84,0.00,,,0.00,0,Wunderground v.1.15,2013-01-04 10:47:00,
2013-01-04 04:52:00,33.4,29.1,30.37,NNE,26,1.0,1.0,84,0.00,,,0.00,0,Wunderground v.1.15,2013-01-04 10:52:00,
2013-01-04 04:58:00,33.4,29.1,30.37,NE,41,1.0,4.0,84,0.00,,,0.00,0,Wunderground v.1.15,2013-01-04 10:58:00,
2013-01-04 05:03:00,33.4,29.1,30.38,NE,43,1.0,1.0,84,0.00,,,0.00,0,Wunderground v.1.15,2013-01-04 11:03:00,
2013-01-04 05:09:00,33.4,29.1,30.38,NNE,15,1.0,7.0,84,0.00,,,0.00,0,Wunderground v.1.15,2013-01-04 11:09:00,
2013-01-04 05:14:00,33.5,29.2,30.37,NE,40,2.0,3.0,84,0.00,,,0.00,0,Wunderground v.1.15,2013-01-04 11:14:00,
2013-01-04 05:19:00,33.5,29.2,30.38,NNW,348,1.0,3.0,84,0.00,,,0.00,0,Wunderground v.1.15,2013-01-04 11:19:00,
2013-01-04 05:24:00,33.6,29.0,30.38,NE,46,1.0,1.0,83,0.00,,,0.00,0,Wunderground v.1.15,2013-01-04 11:24:00,
2013-01-04 05:30:00,33.6,29.0,30.38,NE,56,1.0,5.0,83,0.00,,,0.00,0,Wunderground v.1.15,2013-01-04 11:30:00,
2013-01-04 05:35:00,33.7,29.1,30.38,NE,37,1.0,5.0,83,0.00,,,0.00,0,Wunderground v.1.15,2013-01-04 11:35:00,
2013-01-04 05:40:00,33.7,29.1,30.39,NE,53,1.0,1.0,83,0.00,,,0.00,0,Wunderground v.1.15,2013-01-04 11:40:00,
2013-01-04 05:45:00,33.7,29.1,30.39,ENE,70,1.0,1.0,83,0.00,,,0.00,0,Wunderground v.1.15,2013-01-04 11:45:00,
2013-01-04 05:51:00,33.6,29.0,30.39,NNE,29,1.0,1.0,83,0.00,,,0.00,0,Wunderground v.1.15,2013-01-04 11:51:00,
2013-01-04 05:56:00,33.5,28.9,30.39,NNE,29,1.0,1.0,83,0.00,,,0.00,0,Wunderground v.1.15,2013-01-04 11:56:00,
2013-01-04 06:01:00,33.5,28.9,30.39,NNE,19,1.0,1.0,83,0.00,,,0.00,0,Wunderground v.1.15,2013-01-04 12:01:00,
2013-01-04 06:06:00,33.4,28.8,30.39,NE,53,1.0,1.0,83,0.00,,,0.00,0,Wunderground v.1.15,2013-01-04 12:06:00,
2013-01-04 06:12:00,33.4,28.8,30.39,NNE,29,1.0,1.0,83,0.00,,,0.00,0,Wunderground v.1.15,2013-01-04 12:12:00,
2013-01-04 06:18:00,33.3,28.7,30.40,NNE,29,0.0,1.0,83,0.00,,,0.00,0,Wunderground v.1.15,2013-01-04 12:18:00,
2013-01-04 06:23:00,33.3,28.7,30.40,NNE,25,0.0,0.0,83,0.00,,,0.00,0,Wunderground v.1.15,2013-01-04 12:23:00,
2013-01-04 06:28:00,33.2,28.6,30.40,NNE,32,0.0,1.0,83,0.00,,,0.00,0,Wunderground v.1.15,2013-01-04 12:28:00,
2013-01-04 06:33:00,33.2,28.9,30.40,NNE,30,1.0,5.0,84,0.00,,,0.00,0,Wunderground v.1.15,2013-01-04 12:33:00,
2013-01-04 06:38:00,33.0,28.7,30.40,ENE,60,1.0,5.0,84,0.00,,,0.00,0,Wunderground v.1.15,2013-01-04 12:38:00,
2013-01-04 06:43:00,33.0,28.7,30.40,NE,49,0.0,2.0,84,0.00,,,0.00,0,Wunderground v.1.15,2013-01-04 12:43:00,
2013-01-04 06:49:00,33.0,28.7,30.40,NNE,20,0.0,2.0,84,0.00,,,0.00,0,Wunderground v.1.15,2013-01-04 12:49:00,
2013-01-04 06:54:00,33.0,28.7,30.40,NNE,27,0.0,0.0,84,0.00,,,0.00,0,Wunderground v.1.15,2013-01-04 12:54:00,
2013-01-04 06:59:00,33.0,28.4,30.41,NNE,29,1.0,2.0,83,0.00,,,0.00,0,Wunderground v.1.15,2013-01-04 12:59:00,
2013-01-04 07:05:00,33.1,28.5,30.42,NNE,33,1.0,1.0,83,0.00,,,0.00,0,Wunderground v.1.15,2013-01-04 13:05:00,
2013-01-04 07:10:00,33.1,28.5,30.42,NNE,32,0.0,0.0,83,0.00,,,0.00,7,Wunderground v.1.15,2013-01-04 13:10:00,
2013-01-04 07:16:00,33.1,28.5,30.42,NNE,32,0.0,0.0,83,0.00,,,0.00,9,Wunderground v.1.15,2013-01-04 13:16:00,
2013-01-04 07:21:00,33.1,28.5,30.43,NNE,32,0.0,0.0,83,0.00,,,0.00,14,Wunderground v.1.15,2013-01-04 13:21:00,
2013-01-04 07:26:00,33.0,28.4,30.43,NNE,30,0.0,3.0,83,0.00,,,0.00,16,Wunderground v.1.15,2013-01-04 13:26:00,
2013-01-04 07:32:00,33.1,28.5,30.44,NNE,30,0.0,0.0,83,0.00,,,0.00,18,Wunderground v.1.15,2013-01-04 13:32:00,
2013-01-04 07:37:00,33.1,28.5,30.44,NNE,30,0.0,0.0,83,0.00,,,0.00,21,Wunderground v.1.15,2013-01-04 13:37:00,
2013-01-04 07:42:00,33.2,28.6,30.44,NNE,33,0.0,0.0,83,0.00,,,0.00,30,Wunderground v.1.15,2013-01-04 13:42:00,
2013-01-04 07:48:00,33.4,28.8,30.44,NE,34,0.0,3.0,83,0.00,,,0.00,49,Wunderground v.1.15,2013-01-04 13:48:00,
2013-01-04 07:53:00,33.6,29.0,30.44,NE,35,0.0,0.0,83,0.00,,,0.00,58,Wunderground v.1.15,2013-01-04 13:53:00,
2013-01-04 07:58:00,33.9,29.0,30.44,NNE,30,1.0,7.0,82,0.00,,,0.00,42,Wunderground v.1.15,2013-01-04 13:58:00,
2013-01-04 08:03:00,34.4,29.2,30.44,NE,41,1.0,1.0,81,0.00,,,0.00,104,Wunderground v.1.15,2013-01-04 14:03:00,
2013-01-04 08:08:00,34.9,29.4,30.44,ENE,63,1.0,3.0,80,0.00,,,0.00,137,Wunderground v.1.15,2013-01-04 14:08:00,
2013-01-04 08:14:00,35.7,28.9,30.44,ENE,57,2.0,4.0,76,0.00,,,0.00,120,Wunderground v.1.15,2013-01-04 14:14:00,
2013-01-04 08:20:00,36.2,29.4,30.44,ENE,57,1.0,1.0,76,0.00,,,0.00,151,Wunderground v.1.15,2013-01-04 14:20:00,
2013-01-04 08:25:00,36.7,28.5,30.43,ENE,70,1.0,10.0,72,0.00,,,0.00,163,Wunderground v.1.15,2013-01-04 14:25:00,
2013-01-04 08:30:00,37.2,28.3,30.43,NE,56,3.0,3.0,70,0.00,,,0.00,176,Wunderground v.1.15,2013-01-04 14:30:00,
2013-01-04 08:35:00,37.7,28.4,30.43,ENE,59,2.0,7.0,69,0.00,,,0.00,192,Wunderground v.1.15,2013-01-04 14:35:00,
2013-01-04 08:40:00,38.2,28.9,30.43,ENE,63,1.0,1.0,69,0.00,,,0.00,206,Wunderground v.1.15,2013-01-04 14:40:00,
2013-01-04 08:46:00,38.6,28.6,30.43,NNE,32,0.0,3.0,67,0.00,,,0.00,223,Wunderground v.1.15,2013-01-04 14:46:00,
2013-01-04 08:51:00,39.0,28.6,30.44,NE,38,1.0,2.0,66,0.00,,,0.00,239,Wunderground v.1.15,2013-01-04 14:51:00,
2013-01-04 08:56:00,39.4,28.2,30.44,ENE,71,1.0,2.0,64,0.00,,,0.00,257,Wunderground v.1.15,2013-01-04 14:56:00,
2013-01-04 09:01:00,39.9,28.3,30.44,NNE,29,1.0,2.0,63,0.00,,,0.00,272,Wunderground v.1.15,2013-01-04 15:01:00,
2013-01-04 09:07:00,40.3,27.9,30.45,ENE,67,1.0,2.0,61,0.00,,,0.00,288,Wunderground v.1.15,2013-01-04 15:07:00,
2013-01-04 09:12:00,40.7,28.7,30.45,North,10,0.0,2.0,62,0.00,,,0.00,302,Wunderground v.1.15,2013-01-04 15:12:00,
2013-01-04 09:17:00,41.1,27.9,30.46,NE,40,1.0,8.0,59,0.00,,,0.00,315,Wunderground v.1.15,2013-01-04 15:17:00,
2013-01-04 09:22:00,41.4,27.3,30.46,ENE,77,2.0,2.0,57,0.00,,,0.00,329,Wunderground v.1.15,2013-01-04 15:22:00,
2013-01-04 09:27:00,41.9,27.8,30.46,NE,34,1.0,4.0,57,0.00,,,0.00,339,Wunderground v.1.15,2013-01-04 15:27:00,
2013-01-04 09:32:00,42.4,27.8,30.46,NE,48,1.0,5.0,56,0.00,,,0.00,352,Wunderground v.1.15,2013-01-04 15:32:00,
2013-01-04 09:38:00,42.7,28.1,30.46,ENE,61,2.0,5.0,56,0.00,,,0.00,367,Wunderground v.1.15,2013-01-04 15:38:00,
2013-01-04 09:43:00,43.2,28.1,30.45,NNE,25,1.0,4.0,55,0.00,,,0.00,380,Wunderground v.1.15,2013-01-04 15:43:00,
2013-01-04 09:48:00,43.6,28.0,30.45,East,98,1.0,5.0,54,0.00,,,0.00,392,Wunderground v.1.15,2013-01-04 15:48:00,
2013-01-04 09:53:00,43.7,27.2,30.46,NE,48,2.0,8.0,52,0.00,,,0.00,403,Wunderground v.1.15,2013-01-04 15:53:00,
2013-01-04 09:59:00,44.0,28.0,30.46,NNE,32,2.0,8.0,53,0.00,,,0.00,178,Wunderground v.1.15,2013-01-04 15:59:00,
2013-01-04 10:04:00,44.1,27.1,30.45,North,5,1.0,4.0,51,0.00,,,0.00,243,Wunderground v.1.15,2013-01-04 16:04:00,
2013-01-04 10:09:00,44.1,27.1,30.45,North,357,2.0,7.0,51,0.00,,,0.00,169,Wunderground v.1.15,2013-01-04 16:09:00,
2013-01-04 10:15:00,44.5,26.5,30.46,ENE,68,3.0,8.0,49,0.00,,,0.00,334,Wunderground v.1.15,2013-01-04 16:15:00,
2013-01-04 10:20:00,44.9,27.4,30.46,NE,44,2.0,2.0,50,0.00,,,0.00,299,Wunderground v.1.15,2013-01-04 16:20:00,
2013-01-04 10:25:00,45.2,27.6,30.45,ENE,67,1.0,7.0,50,0.00,,,0.00,283,Wunderground v.1.15,2013-01-04 16:25:00,
2013-01-04 10:30:00,45.3,26.7,30.44,NE,45,3.0,3.0,48,0.00,,,0.00,285,Wunderground v.1.15,2013-01-04 16:30:00,
2013-01-04 10:36:00,45.4,27.8,30.45,NE,36,4.0,7.0,50,0.00,,,0.00,276,Wunderground v.1.15,2013-01-04 16:36:00,
2013-01-04 10:41:00,45.4,27.3,30.45,ENE,69,2.0,3.0,49,0.00,,,0.00,288,Wunderground v.1.15,2013-01-04 16:41:00,
2013-01-04 10:47:00,45.7,28.1,30.44,ENE,71,2.0,6.0,50,0.00,,,0.00,294,Wunderground v.1.15,2013-01-04 16:47:00,
2013-01-04 10:52:00,45.9,27.3,30.45,NE,42,1.0,6.0,48,0.00,,,0.00,294,Wunderground v.1.15,2013-01-04 16:52:00,
2013-01-04 10:57:00,46.1,28.0,30.45,NE,35,1.0,6.0,49,0.00,,,0.00,272,Wunderground v.1.15,2013-01-04 16:57:00,
2013-01-04 11:03:00,46.2,27.1,30.45,North,358,1.0,3.0,47,0.00,,,0.00,246,Wunderground v.1.15,2013-01-04 17:03:00,
2013-01-04 11:08:00,46.2,26.5,30.44,East,84,1.0,3.0,46,0.00,,,0.00,237,Wunderground v.1.15,2013-01-04 17:08:00,
2013-01-04 11:13:00,46.3,27.2,30.45,ENE,72,0.0,0.0,47,0.00,,,0.00,265,Wunderground v.1.15,2013-01-04 17:13:00,
2013-01-04 11:18:00,46.5,27.3,30.44,ENE,70,0.0,0.0,47,0.00,,,0.00,281,Wunderground v.1.15,2013-01-04 17:18:00,
2013-01-04 11:23:00,46.7,28.0,30.45,ENE,70,0.0,0.0,48,0.00,,,0.00,264,Wunderground v.1.15,2013-01-04 17:23:00,
2013-01-04 11:29:00,46.9,27.2,30.44,ENE,64,0.0,0.0,46,0.00,,,0.00,288,Wunderground v.1.15,2013-01-04 17:29:00,
2013-01-04 11:35:00,47.2,27.5,30.43,NNE,27,1.0,1.0,46,0.00,,,0.00,338,Wunderground v.1.15,2013-01-04 17:35:00,
2013-01-04 11:40:00,47.4,27.6,30.43,NNW,333,1.0,1.0,46,0.00,,,0.00,341,Wunderground v.1.15,2013-01-04 17:40:00,
2013-01-04 11:45:00,47.4,27.6,30.42,ENE,63,1.0,2.0,46,0.00,,,0.00,378,Wunderground v.1.15,2013-01-04 17:45:00,
2013-01-04 11:50:00,47.8,28.0,30.42,North,1,1.0,1.0,46,0.00,,,0.00,422,Wunderground v.1.15,2013-01-04 17:50:00,
2013-01-04 11:56:00,48.2,28.4,30.41,NNE,27,1.0,3.0,46,0.00,,,0.00,406,Wunderground v.1.15,2013-01-04 17:56:00,
2013-01-04 12:01:00,48.4,27.5,30.41,NNW,330,1.0,4.0,44,0.00,,,0.00,563,Wunderground v.1.15,2013-01-04 18:01:00,
2013-01-04 12:06:00,48.6,27.6,30.41,North,360,1.0,4.0,44,0.00,,,0.00,473,Wunderground v.1.15,2013-01-04 18:06:00,
2013-01-04 12:12:00,48.9,27.4,30.41,NW,320,1.0,1.0,43,0.00,,,0.00,563,Wunderground v.1.15,2013-01-04 18:12:00,
2013-01-04 12:17:00,49.2,27.6,30.40,NNW,327,0.0,1.0,43,0.00,,,0.00,482,Wunderground v.1.15,2013-01-04 18:17:00,
2013-01-04 12:22:00,49.3,27.7,30.39,NNW,327,0.0,0.0,43,0.00,,,0.00,554,Wunderground v.1.15,2013-01-04 18:22:00,
2013-01-04 12:27:00,49.7,26.9,30.39,North,10,0.0,5.0,41,0.00,,,0.00,552,Wunderground v.1.15,2013-01-04 18:27:00,
2013-01-04 12:32:00,50.1,27.3,30.39,NNW,341,1.0,1.0,41,0.00,,,0.00,550,Wunderground v.1.15,2013-01-04 18:32:00,
2013-01-04 12:38:00,50.4,28.1,30.38,NNW,340,1.0,4.0,42,0.00,,,0.00,550,Wunderground v.1.15,2013-01-04 18:38:00,
2013-01-04 12:43:00,50.5,27.7,30.37,NNW,341,2.0,6.0,41,0.00,,,0.00,548,Wunderground v.1.15,2013-01-04 18:43:00,
2013-01-04 12:48:00,50.7,27.8,30.37,East,81,3.0,6.0,41,0.00,,,0.00,555,Wunderground v.1.15,2013-01-04 18:48:00,
2013-01-04 12:53:00,51.2,28.3,30.38,NE,52,1.0,4.0,41,0.00,,,0.00,605,Wunderground v.1.15,2013-01-04 18:53:00,
2013-01-04 12:58:00,51.4,27.9,30.37,NE,48,1.0,5.0,40,0.00,,,0.00,225,Wunderground v.1.15,2013-01-04 18:58:00,
2013-01-04 13:03:00,51.2,27.1,30.37,NE,46,2.0,2.0,39,0.00,,,0.00,383,Wunderground v.1.15,2013-01-04 19:03:00,
2013-01-04 13:08:00,51.3,29.0,30.37,NE,48,1.0,2.0,42,0.00,,,0.00,603,Wunderground v.1.15,2013-01-04 19:08:00,
2013-01-04 13:13:00,51.7,28.1,30.36,NE,39,0.0,2.0,40,0.00,,,0.00,559,Wunderground v.1.15,2013-01-04 19:13:00,
2013-01-04 13:18:00,52.1,28.5,30.36,NNE,29,1.0,5.0,40,0.00,,,0.00,526,Wunderground v.1.15,2013-01-04 19:18:00,
2013-01-04 13:24:00,52.1,26.6,30.36,NE,50,2.0,5.0,37,0.00,,,0.00,517,Wunderground v.1.15,2013-01-04 19:24:00,
2013-01-04 13:30:00,52.0,27.8,30.36,NE,52,2.0,2.0,39,0.00,,,0.00,504,Wunderground v.1.15,2013-01-04 19:30:00,
2013-01-04 13:35:00,52.7,29.6,30.36,NE,52,1.0,2.0,41,0.00,,,0.00,499,Wunderground v.1.15,2013-01-04 19:35:00,
2013-01-04 13:41:00,52.6,26.4,30.36,NW,312,2.0,2.0,36,0.00,,,0.00,489,Wunderground v.1.15,2013-01-04 19:41:00,
2013-01-04 13:47:00,52.7,27.8,30.36,NW,309,2.0,4.0,38,0.00,,,0.00,480,Wunderground v.1.15,2013-01-04 19:47:00,
2013-01-04 13:52:00,52.5,27.6,30.35,NE,42,2.0,2.0,38,0.00,,,0.00,471,Wunderground v.1.15,2013-01-04 19:52:00,
2013-01-04 13:57:00,52.8,27.9,30.35,North,352,1.0,2.0,38,0.00,,,0.00,464,Wunderground v.1.15,2013-01-04 19:57:00,
2013-01-04 14:02:00,53.2,26.9,30.34,North,10,1.0,6.0,36,0.00,,,0.00,454,Wunderground v.1.15,2013-01-04 20:02:00,
2013-01-04 14:07:00,53.2,27.6,30.34,NNW,341,1.0,6.0,37,0.00,,,0.00,443,Wunderground v.1.15,2013-01-04 20:07:00,
2013-01-04 14:12:00,53.3,27.7,30.34,ENE,64,1.0,4.0,37,0.00,,,0.00,432,Wunderground v.1.15,2013-01-04 20:12:00,
2013-01-04 14:17:00,53.5,27.8,30.34,North,10,2.0,7.0,37,0.00,,,0.00,424,Wunderground v.1.15,2013-01-04 20:17:00,
2013-01-04 14:23:00,53.6,27.9,30.34,ENE,57,2.0,2.0,37,0.00,,,0.00,415,Wunderground v.1.15,2013-01-04 20:23:00,
2013-01-04 14:28:00,53.8,28.1,30.34,NE,42,1.0,3.0,37,0.00,,,0.00,408,Wunderground v.1.15,2013-01-04 20:28:00,
2013-01-04 14:33:00,54.0,28.9,30.34,NE,41,2.0,3.0,38,0.00,,,0.00,404,Wunderground v.1.15,2013-01-04 20:33:00,
2013-01-04 14:39:00,54.0,28.3,30.34,North,355,3.0,6.0,37,0.00,,,0.00,394,Wunderground v.1.15,2013-01-04 20:39:00,
2013-01-04 14:44:00,54.0,29.6,30.33,ENE,59,2.0,2.0,39,0.00,,,0.00,141,Wunderground v.1.15,2013-01-04 20:44:00,
2013-01-04 14:49:00,53.9,29.5,30.33,ENE,61,1.0,2.0,39,0.00,,,0.00,392,Wunderground v.1.15,2013-01-04 20:49:00,
2013-01-04 14:54:00,54.0,30.2,30.34,North,10,1.0,4.0,40,0.00,,,0.00,362,Wunderground v.1.15,2013-01-04 20:54:00,
2013-01-04 15:00:00,54.2,29.1,30.33,NNE,15,2.0,2.0,38,0.00,,,0.00,352,Wunderground v.1.15,2013-01-04 21:00:00,
2013-01-04 15:05:00,54.3,28.6,30.34,NNW,337,2.0,3.0,37,0.00,,,0.00,330,Wunderground v.1.15,2013-01-04 21:05:00,
2013-01-04 15:10:00,54.4,28.0,30.34,NE,54,2.0,3.0,36,0.00,,,0.00,329,Wunderground v.1.15,2013-01-04 21:10:00,
2013-01-04 15:16:00,54.3,27.9,30.34,North,5,2.0,4.0,36,0.00,,,0.00,149,Wunderground v.1.15,2013-01-04 21:16:00,
2013-01-04 15:21:00,54.2,28.5,30.35,NW,326,2.0,2.0,37,0.00,,,0.00,225,Wunderground v.1.15,2013-01-04 21:21:00,
2013-01-04 15:26:00,54.2,28.5,30.35,NNW,328,0.0,4.0,37,0.00,,,0.00,118,Wunderground v.1.15,2013-01-04 21:26:00,
2013-01-04 15:32:00,54.2,29.1,30.34,NNW,348,1.0,3.0,38,0.00,,,0.00,199,Wunderground v.1.15,2013-01-04 21:32:00,
2013-01-04 15:37:00,54.2,29.1,30.35,NNW,347,1.0,3.0,38,0.00,,,0.00,111,Wunderground v.1.15,2013-01-04 21:37:00,
2013-01-04 15:43:00,54.0,28.9,30.35,NNW,343,1.0,3.0,38,0.00,,,0.00,58,Wunderground v.1.15,2013-01-04 21:43:00,
2013-01-04 15:48:00,53.8,29.4,30.34,NNW,340,1.0,3.0,39,0.00,,,0.00,211,Wunderground v.1.15,2013-01-04 21:48:00,
2013-01-04 15:54:00,53.8,30.0,30.35,North,349,1.0,4.0,40,0.00,,,0.00,118,Wunderground v.1.15,2013-01-04 21:54:00,
2013-01-04 15:59:00,53.7,29.9,30.35,NNW,332,1.0,4.0,40,0.00,,,0.00,179,Wunderground v.1.15,2013-01-04 21:59:00,
2013-01-04 16:04:00,53.7,29.9,30.35,NNW,332,1.0,2.0,40,0.00,,,0.00,155,Wunderground v.1.15,2013-01-04 22:04:00,
2013-01-04 16:10:00,53.6,30.4,30.35,NNW,332,1.0,1.0,41,0.00,,,0.00,134,Wunderground v.1.15,2013-01-04 22:10:00,
2013-01-04 16:15:00,53.6,31.0,30.35,NNW,332,1.0,3.0,42,0.00,,,0.00,120,Wunderground v.1.15,2013-01-04 22:15:00,
2013-01-04 16:20:00,53.5,31.5,30.35,NNW,332,0.0,0.0,43,0.00,,,0.00,51,Wunderground v.1.15,2013-01-04 22:20:00,
2013-01-04 16:26:00,53.2,32.4,30.35,NNW,332,0.0,1.0,45,0.00,,,0.00,53,Wunderground v.1.15,2013-01-04 22:26:00,
2013-01-04 16:31:00,52.8,30.3,30.34,NNW,333,0.0,2.0,42,0.00,,,0.00,40,Wunderground v.1.15,2013-01-04 22:31:00,
2013-01-04 16:37:00,52.4,31.1,30.35,NNW,333,0.0,2.0,44,0.00,,,0.00,35,Wunderground v.1.15,2013-01-04 22:37:00,
2013-01-04 16:42:00,52.1,30.8,30.35,NNW,334,1.0,5.0,44,0.00,,,0.00,23,Wunderground v.1.15,2013-01-04 22:42:00,
2013-01-04 16:47:00,51.8,31.1,30.36,NNW,334,1.0,5.0,45,0.00,,,0.00,14,Wunderground v.1.15,2013-01-04 22:47:00,
2013-01-04 16:53:00,51.4,30.7,30.35,NNW,334,0.0,1.0,45,0.00,,,0.00,12,Wunderground v.1.15,2013-01-04 22:53:00,
2013-01-04 16:58:00,51.0,30.9,30.35,NNW,334,0.0,1.0,46,0.00,,,0.00,9,Wunderground v.1.15,2013-01-04 22:58:00,
2013-01-04 17:03:00,50.8,30.7,30.35,NNW,334,0.0,0.0,46,0.00,,,0.00,7,Wunderground v.1.15,2013-01-04 23:03:00,
2013-01-04 17:09:00,50.5,30.5,30.35,NNW,338,0.0,2.0,46,0.00,,,0.00,5,Wunderground v.1.15,2013-01-04 23:09:00,
2013-01-04 17:15:00,50.3,31.3,30.35,NNW,341,1.0,4.0,48,0.00,,,0.00,0,Wunderground v.1.15,2013-01-04 23:15:00,
2013-01-04 17:20:00,50.1,31.7,30.35,NNW,341,0.0,0.0,49,0.00,,,0.00,0,Wunderground v.1.15,2013-01-04 23:20:00,
2013-01-04 17:26:00,49.8,31.9,30.36,NNW,341,0.0,0.0,50,0.00,,,0.00,0,Wunderground v.1.15,2013-01-04 23:26:00,
2013-01-04 17:31:00,49.5,31.6,30.37,NNW,341,0.0,0.0,50,0.00,,,0.00,0,Wunderground v.1.15,2013-01-04 23:31:00,
2013-01-04 17:36:00,49.2,31.8,30.37,NNW,341,0.0,1.0,51,0.00,,,0.00,0,Wunderground v.1.15,2013-01-04 23:36:00,
2013-01-04 17:42:00,48.9,32.5,30.37,NNW,341,0.0,3.0,53,0.00,,,0.00,0,Wunderground v.1.15,2013-01-04 23:42:00,
2013-01-04 17:47:00,48.6,32.2,30.37,NNW,341,0.0,3.0,53,0.00,,,0.00,0,Wunderground v.1.15,2013-01-04 23:47:00,
2013-01-04 17:52:00,48.3,32.4,30.37,NNW,341,0.0,0.0,54,0.00,,,0.00,0,Wunderground v.1.15,2013-01-04 23:52:00,
2013-01-04 17:58:00,48.2,32.3,30.37,NNW,341,0.0,1.0,54,0.00,,,0.00,0,Wunderground v.1.15,2013-01-04 23:58:00,
2013-01-04 18:03:00,48.1,32.7,30.37,NNW,341,0.0,0.0,55,0.00,,,0.00,0,Wunderground v.1.15,2013-01-05 00:03:00,
2013-01-04 18:08:00,47.9,32.9,30.37,NNW,341,0.0,0.0,56,0.00,,,0.00,0,Wunderground v.1.15,2013-01-05 00:08:00,
2013-01-04 18:14:00,47.6,33.1,30.37,NNW,341,0.0,0.0,57,0.00,,,0.00,0,Wunderground v.1.15,2013-01-05 00:14:00,
2013-01-04 18:19:00,47.4,32.9,30.37,NNW,341,0.0,0.0,57,0.00,,,0.00,0,Wunderground v.1.15,2013-01-05 00:19:00,
2013-01-04 18:24:00,47.1,32.6,30.37,NNW,341,0.0,0.0,57,0.00,,,0.00,0,Wunderground v.1.15,2013-01-05 00:24:00,
2013-01-04 18:29:00,46.9,32.9,30.37,NNW,341,0.0,0.0,58,0.00,,,0.00,0,Wunderground v.1.15,2013-01-05 00:29:00,
2013-01-04 18:35:00,46.7,32.7,30.37,NNW,341,0.0,0.0,58,0.00,,,0.00,0,Wunderground v.1.15,2013-01-05 00:35:00,
2013-01-04 18:40:00,46.5,32.9,30.37,NNW,341,0.0,0.0,59,0.00,,,0.00,0,Wunderground v.1.15,2013-01-05 00:40:00,
2013-01-04 18:45:00,46.4,32.8,30.38,NNW,341,0.0,0.0,59,0.00,,,0.00,0,Wunderground v.1.15,2013-01-05 00:45:00,
2013-01-04 18:51:00,46.4,32.8,30.38,NNW,341,0.0,0.0,59,0.00,,,0.00,0,Wunderground v.1.15,2013-01-05 00:51:00,
2013-01-04 18:56:00,46.3,32.7,30.38,NNW,341,0.0,2.0,59,0.00,,,0.00,0,Wunderground v.1.15,2013-01-05 00:56:00,
2013-01-04 19:01:00,46.3,32.7,30.38,NNW,341,0.0,0.0,59,0.00,,,0.00,0,Wunderground v.1.15,2013-01-05 01:01:00,
2013-01-04 19:07:00,46.2,33.1,30.38,NNW,341,0.0,0.0,60,0.00,,,0.00,0,Wunderground v.1.15,2013-01-05 01:07:00,
2013-01-04 19:12:00,46.1,33.0,30.39,NNW,341,0.0,0.0,60,0.00,,,0.00,0,Wunderground v.1.15,2013-01-05 01:12:00,
2013-01-04 19:17:00,46.0,32.9,30.39,NNW,341,0.0,0.0,60,0.00,,,0.00,0,Wunderground v.1.15,2013-01-05 01:17:00,
2013-01-04 19:22:00,46.0,32.9,30.39,NNW,341,0.0,0.0,60,0.00,,,0.00,0,Wunderground v.1.15,2013-01-05 01:22:00,
2013-01-04 19:28:00,45.9,33.2,30.39,NNW,341,0.0,0.0,61,0.00,,,0.00,0,Wunderground v.1.15,2013-01-05 01:28:00,
2013-01-04 19:33:00,45.9,33.2,30.38,NNW,341,0.0,0.0,61,0.00,,,0.00,0,Wunderground v.1.15,2013-01-05 01:33:00,
2013-01-04 19:38:00,45.8,33.1,30.38,NNW,341,0.0,0.0,61,0.00,,,0.00,0,Wunderground v.1.15,2013-01-05 01:38:00,
2013-01-04 19:44:00,45.7,33.4,30.39,NNW,341,0.0,0.0,62,0.00,,,0.00,0,Wunderground v.1.15,2013-01-05 01:44:00,
2013-01-04 19:50:00,45.6,33.3,30.38,NNW,341,0.0,0.0,62,0.00,,,0.00,0,Wunderground v.1.15,2013-01-05 01:50:00,
2013-01-04 19:55:00,45.4,33.1,30.39,NNW,341,0.0,0.0,62,0.00,,,0.00,0,Wunderground v.1.15,2013-01-05 01:55:00,
2013-01-04 20:00:00,45.2,33.3,30.39,NNW,341,0.0,0.0,63,0.00,,,0.00,0,Wunderground v.1.15,2013-01-05 02:00:00,
2013-01-04 20:05:00,45.2,33.3,30.38,NNW,341,0.0,0.0,63,0.00,,,0.00,0,Wunderground v.1.15,2013-01-05 02:05:00,
2013-01-04 20:10:00,45.1,33.2,30.39,NNW,341,0.0,0.0,63,0.00,,,0.00,0,Wunderground v.1.15,2013-01-05 02:10:00,
2013-01-04 20:15:00,45.0,33.5,30.39,NNW,341,0.0,0.0,64,0.00,,,0.00,0,Wunderground v.1.15,2013-01-05 02:15:00,
2013-01-04 20:21:00,45.0,33.5,30.39,NNW,341,0.0,0.0,64,0.00,,,0.00,0,Wunderground v.1.15,2013-01-05 02:21:00,
2013-01-04 20:26:00,45.0,33.5,30.39,NNW,341,0.0,0.0,64,0.00,,,0.00,0,Wunderground v.1.15,2013-01-05 02:26:00,
2013-01-04 20:31:00,45.0,33.5,30.38,NNW,341,0.0,0.0,64,0.00,,,0.00,0,Wunderground v.1.15,2013-01-05 02:31:00,
2013-01-04 20:36:00,45.0,33.5,30.38,NNW,342,0.0,0.0,64,0.00,,,0.00,0,Wunderground v.1.15,2013-01-05 02:36:00,
2013-01-04 20:42:00,45.0,34.3,30.37,NNW,342,0.0,0.0,66,0.00,,,0.00,0,Wunderground v.1.15,2013-01-05 02:42:00,
2013-01-04 20:47:00,44.8,34.1,30.38,NNW,342,0.0,3.0,66,0.00,,,0.00,0,Wunderground v.1.15,2013-01-05 02:47:00,
2013-01-04 20:53:00,44.7,34.0,30.38,NNW,343,0.0,0.0,66,0.00,,,0.00,0,Wunderground v.1.15,2013-01-05 02:53:00,
2013-01-04 20:58:00,44.7,33.6,30.38,NNW,343,0.0,0.0,65,0.00,,,0.00,0,Wunderground v.1.15,2013-01-05 02:58:00,
2013-01-04 21:03:00,44.7,34.0,30.38,NNW,343,0.0,0.0,66,0.00,,,0.00,0,Wunderground v.1.15,2013-01-05 03:03:00,
2013-01-04 21:08:00,44.6,34.3,30.39,NNW,343,0.0,0.0,67,0.00,,,0.00,0,Wunderground v.1.15,2013-01-05 03:08:00,
2013-01-04 21:14:00,44.5,33.8,30.39,NNW,343,0.0,0.0,66,0.00,,,0.00,0,Wunderground v.1.15,2013-01-05 03:14:00,
2013-01-04 21:19:00,44.4,34.1,30.38,NNW,343,0.0,0.0,67,0.00,,,0.00,0,Wunderground v.1.15,2013-01-05 03:19:00,
2013-01-04 21:24:00,44.3,33.7,30.38,NNW,343,0.0,0.0,66,0.00,,,0.00,0,Wunderground v.1.15,2013-01-05 03:24:00,
2013-01-04 21:29:00,44.1,33.5,30.38,NNW,343,0.0,0.0,66,0.00,,,0.00,0,Wunderground v.1.15,2013-01-05 03:29:00,
2013-01-04 21:35:00,44.0,33.7,30.38,NNW,343,0.0,0.0,67,0.00,,,0.00,0,Wunderground v.1.15,2013-01-05 03:35:00,
2013-01-04 21:40:00,43.8,33.6,30.37,NNW,343,0.0,0.0,67,0.00,,,0.00,0,Wunderground v.1.15,2013-01-05 03:40:00,
2013-01-04 21:45:00,43.7,33.5,30.37,NNW,343,0.0,0.0,67,0.00,,,0.00,0,Wunderground v.1.15,2013-01-05 03:45:00,
2013-01-04 21:50:00,43.7,33.5,30.37,NNW,343,0.0,0.0,67,0.00,,,0.00,0,Wunderground v.1.15,2013-01-05 03:50:00,
2013-01-04 21:55:00,43.6,33.4,30.37,NNW,343,0.0,0.0,67,0.00,,,0.00,0,Wunderground v.1.15,2013-01-05 03:55:00,
2013-01-04 22:00:00,43.6,33.4,30.37,NNW,343,0.0,0.0,67,0.00,,,0.00,0,Wunderground v.1.15,2013-01-05 04:00:00,
2013-01-04 22:05:00,43.5,33.6,30.36,NNW,343,0.0,0.0,68,0.00,,,0.00,0,Wunderground v.1.15,2013-01-05 04:05:00,
2013-01-04 22:10:00,43.4,33.5,30.36,NNW,343,0.0,0.0,68,0.00,,,0.00,0,Wunderground v.1.15,2013-01-05 04:10:00,
2013-01-04 22:16:00,43.4,33.5,30.36,NNW,343,0.0,0.0,68,0.00,,,0.00,0,Wunderground v.1.15,2013-01-05 04:16:00,
2013-01-04 22:21:00,43.3,33.4,30.36,NNW,343,0.0,0.0,68,0.00,,,0.00,0,Wunderground v.1.15,2013-01-05 04:21:00,
2013-01-04 22:26:00,43.1,33.6,30.36,NNW,343,0.0,0.0,69,0.00,,,0.00,0,Wunderground v.1.15,2013-01-05 04:26:00,
2013-01-04 22:31:00,42.9,33.4,30.37,NNW,343,0.0,0.0,69,0.00,,,0.00,0,Wunderground v.1.15,2013-01-05 04:31:00,
2013-01-04 22:37:00,42.7,33.6,30.37,NNW,343,0.0,0.0,70,0.00,,,0.00,0,Wunderground v.1.15,2013-01-05 04:37:00,
2013-01-04 22:42:00,42.5,33.8,30.37,NNW,343,0.0,0.0,71,0.00,,,0.00,0,Wunderground v.1.15,2013-01-05 04:42:00,
2013-01-04 22:47:00,42.4,33.7,30.37,NNW,343,0.0,0.0,71,0.00,,,0.00,0,Wunderground v.1.15,2013-01-05 04:47:00,
2013-01-04 22:53:00,42.3,33.2,30.36,NNW,343,0.0,0.0,70,0.00,,,0.00,0,Wunderground v.1.15,2013-01-05 04:53:00,
2013-01-04 22:58:00,42.3,33.2,30.36,NNW,343,0.0,0.0,70,0.00,,,0.00,0,Wunderground v.1.15,2013-01-05 04:58:00,
2013-01-04 23:00:00,42.3,33.6,30.36,NNW,343,0.0,0.0,71,0.00,,,0.00,0,Wunderground v.1.15,2013-01-05 05:00:00,
2013-01-04 23:03:00,42.3,33.6,30.36,NNW,343,0.0,0.0,71,0.00,,,0.00,0,Wunderground v.1.15,2013-01-05 05:03:00,
2013-01-04 23:06:00,42.2,33.5,30.36,NNW,343,0.0,0.0,71,0.00,,,0.00,0,Wunderground v.1.15,2013-01-05 05:06:00,
2013-01-04 23:07:00,42.2,33.5,30.36,NNW,343,0.0,0.0,71,0.00,,,0.00,0,Wunderground v.1.15,2013-01-05 05:07:00,
2013-01-04 23:13:00,42.1,33.4,30.36,NNW,343,0.0,0.0,71,0.00,,,0.00,0,Wunderground v.1.15,2013-01-05 05:13:00,
2013-01-04 23:18:00,42.0,33.6,30.35,NNW,343,0.0,0.0,72,0.00,,,0.00,0,Wunderground v.1.15,2013-01-05 05:18:00,
2013-01-04 23:23:00,41.9,33.9,30.35,NNW,343,0.0,0.0,73,0.00,,,0.00,0,Wunderground v.1.15,2013-01-05 05:23:00,
2013-01-04 23:29:00,41.7,33.7,30.35,NNW,345,0.0,2.0,73,0.00,,,0.00,0,Wunderground v.1.15,2013-01-05 05:29:00,
2013-01-04 23:35:00,41.5,33.5,30.35,NNW,345,0.0,0.0,73,0.00,,,0.00,0,Wunderground v.1.15,2013-01-05 05:35:00,
2013-01-04 23:40:00,41.5,33.5,30.35,NNW,345,0.0,0.0,73,0.00,,,0.00,0,Wunderground v.1.15,2013-01-05 05:40:00,
2013-01-04 23:45:00,41.5,33.5,30.35,NNW,345,0.0,0.0,73,0.00,,,0.00,0,Wunderground v.1.15,2013-01-05 05:45:00,
2013-01-04 23:51:00,41.5,33.5,30.34,NNW,345,0.0,0.0,73,0.00,,,0.00,0,Wunderground v.1.15,2013-01-05 05:51:00,
2013-01-04 23:56:00,41.5,33.5,30.34,NNW,345,0.0,0.0,73,0.00,,,0.00,0,Wunderground v.1.15,2013-01-05 05:56:00,